Terminal Aerodrome Forecast
Issued by NWS

Home | Current Version | Previous Version | Graphics & Text | Print | Product List | Glossary On
Versions: 1 2 3 4 5 6 7 8 9 10 11 12 13
000
FTUS43 KICT 271700
TAFHUT
TAF
KHUT 271725Z 2718/2818 01011KT P6SM VCSH FEW025 BKN090
     FM280100 02007KT P6SM SCT200=

USA.gov is the U.S. government's official web portal to all federal, state and local government web resources and services.